This is the latest recevied weather packets stored in our database for station/object W2OBX. If no packets are shown the sender has not sent any weather packets the latest 10 day(s).
| Time | Temp. | Humidity | Pressure | Rain* | Wind** | Luminosity | Snow |
|---|---|---|---|---|---|---|---|
| 1777718245 | 10.56° C | 71% | 1015.7 hPa | 0 mm | - | 0 W/m² | - |
| 1777717943 | 10.56° C | 70% | 1015.3 hPa | 0 mm | - | 0 W/m² | - |
| 1777717640 | 10.56° C | 69% | 1015.4 hPa | 0 mm | - | 0 W/m² | - |
| 1777717336 | 10.56° C | 68% | 1015.4 hPa | 0 mm | - | 0 W/m² | - |
| 1777717034 | 10.56° C | 71% | 1015.2 hPa | 0 mm | - | 0 W/m² | - |
| 1777716732 | 11.11° C | 69% | 1015 hPa | 0 mm | - | 0 W/m² | - |
| 1777716430 | 11.11° C | 70% | 1015.1 hPa | 0 mm | - | 0 W/m² | - |
| 1777716128 | 11.11° C | 69% | 1015.1 hPa | 0 mm | - | 0 W/m² | - |
| 1777715827 | 11.11° C | 68% | 1015.1 hPa | 0 mm | - | 0 W/m² | - |
| 1777715524 | 11.11° C | 69% | 1015.1 hPa | 0 mm | - | 0 W/m² | - |
| 1777715221 | 11.11° C | 69% | 1015.1 hPa | 0 mm | - | 0 W/m² | - |
| 1777714919 | 11.11° C | 67% | 1015.2 hPa | 0 mm | - | 0 W/m² | - |
| 1777714616 | 11.11° C | 65% | 1015.2 hPa | 0 mm | - | 0 W/m² | - |
| 1777714314 | 11.11° C | 66% | 1015.2 hPa | 0 mm | - | 0 W/m² | - |
| 1777714012 | 11.11° C | 66% | 1015.1 hPa | 0 mm | - | 0 W/m² | - |
| 1777713709 | 11.11° C | 67% | 1015.3 hPa | 0 mm | - | 0 W/m² | - |
| 1777713406 | 11.11° C | 67% | 1015.2 hPa | 0 mm | - | 0 W/m² | - |
| 1777713102 | 11.11° C | 67% | 1015.2 hPa | 0 mm | - | 0 W/m² | - |
| 1777712799 | 11.11° C | 65% | 1015.2 hPa | 0 mm | - | 0 W/m² | - |
| 1777712497 | 11.11° C | 65% | 1015.2 hPa | 0 mm | - | 0 W/m² | - |
| 1777712193 | 11.11° C | 67% | 1015.5 hPa | 0 mm | - | 0 W/m² | - |
| 1777711890 | 11.11° C | 66% | 1015.3 hPa | 0 mm | - | 0 W/m² | - |
| 1777711587 | 11.11° C | 68% | 1015.4 hPa | 0 mm | - | 0 W/m² | - |
| 1777711281 | 11.67° C | 68% | 1015.5 hPa | 0 mm | - | 0 W/m² | - |
| 1777710979 | 11.67° C | 69% | 1015.5 hPa | 0 mm | - | 0 W/m² | - |
* Rain latest hour (hover to see other rain measurements)
** Current wind speed in m/s (hover to see current wind gust speed)